SIRION PATHFINDER-2

Last updated on Mon Dec 08 2025 00:03:48 GMT+0000 (Coordinated Universal Time)

1 43759U 18099B 25341.12139136 .00008523 00000+0 49634-3 0 9992 2 43759 97.4545 29.7284 0007752 239.1061 120.9408 15.12233464383570
UTC large
Height (km)
Speed (km/s)
/
Latitude / Longitude
Inclination (degrees)
Orbital Period (minutes)
Azimuth
Elevation
Range (km)
Doppler Factor

Next 0 passes for location: London (51.5072 / 0.1276)

Sorry there are no passes over London.